Flag for U.S.A. Weather past 2 weeks in San Diego, California, U.S.A.

Now
76 °F

Broken clouds.


Feels Like: 78 °F
Forecast: 67 / 80 °F
Wind: 10 mph from West

Location: San Diego - North Island

Current Time: Aug 1, 2014 at 3:49:09 PM

Latest Report: Aug 1, 2014 at 2:52 PM


Visibility: 10 mi

Pressure: 29.90 "Hg

Humidity: 67%

Dew point: 64 °F

Location of San DiegoLocation

Historic Weather in San Diego — Graph

°F

San Diego temperature yesterday

Maximum temperature yesterday: 78 °F (at 1:52 PM)
Minimum temperature yesterday: 70 °F (at 11:52 PM)
Average temperature yesterday: 74 °F

Past Weeks' High & Low Weather Summary

 TemperatureHumidityPressure
High84 °F (Jul 28, 12:52 PM)87% (Jul 30, 1:52 AM)30.05 "Hg (Jul 30, 1:52 AM)
Low69 °F (Jul 25, 2:52 AM)49% (Jul 18, 11:52 AM)29.74 "Hg (Jul 24, 5:52 PM)
Average75 °F70%29.95 "Hg
* Reported Jul 17 1:52 PM — Aug 1 1:52 PM, San Diego, Weather by CustomWeather, © 2014

Note: Actual official high and low records may vary slightly from our data, if they occured in-between our weather recording intervals... More about our weather records

Advertising

San Diego weather history for previous 24 hours

 ConditionsComfort  
Time TempWeatherWind HumidityBarometerVisibility
1:52 PM
Aug 1
76 °FScattered clouds.10 mph67%29.90 "Hg10 mi
12:52 PM76 °FScattered clouds.12 mph67%29.91 "Hg10 mi
11:52 AM76 °FScattered clouds.10 mph67%29.91 "Hg10 mi
10:52 AM74 °FScattered clouds.9 mph71%29.92 "Hg10 mi
9:52 AM73 °FScattered clouds.7 mph76%29.92 "Hg10 mi
8:52 AM72 °FPartly sunny.7 mph76%29.91 "Hg10 mi
7:52 AM71 °FOvercast.5 mph78%29.91 "Hg10 mi
6:52 AM70 °FPassing clouds.5 mph81%29.90 "Hg10 mi
5:52 AM70 °FPassing clouds.No wind81%29.90 "Hg10 mi
4:52 AM70 °FPassing clouds.3 mph81%29.89 "Hg10 mi
3:52 AM70 °FPassing clouds.5 mph81%29.90 "Hg10 mi
2:52 AM70 °FPassing clouds.3 mph81%29.90 "Hg10 mi
1:52 AM70 °FPassing clouds.No wind79%29.91 "Hg10 mi
12:52 AM70 °FPassing clouds.No wind79%29.92 "Hg10 mi
11:52 PM
Jul 31
70 °FPassing clouds.No wind81%29.93 "Hg10 mi
10:52 PM71 °FPassing clouds.6 mph78%29.92 "Hg10 mi
9:52 PM71 °FPassing clouds.5 mph81%29.93 "Hg10 mi
8:52 PM71 °FPassing clouds.6 mph81%29.91 "Hg10 mi
7:52 PM72 °FScattered clouds.9 mph78%29.88 "Hg9 mi
6:52 PM73 °FScattered clouds.10 mph76%29.86 "Hg10 mi
5:52 PM76 °FScattered clouds.12 mph72%29.85 "Hg10 mi
4:52 PM77 °FScattered clouds.13 mph69%29.85 "Hg10 mi
3:52 PM77 °FScattered clouds.12 mph69%29.87 "Hg10 mi
Weather by CustomWeather, © 2014

See weather overviewHow to use our weather pages